CosmoGirlSat
1 60953U 98067WT  24256.42481860  .00124427  00000-0  19316-2 0  9997
2 60953  51.6367 242.9973 0012683 353.2541   6.8276 15.52967712  2187
Sakura
1 60954U 98067WU  24256.68055150  .00287811  00000-0  42894-2 0  9999
2 60954  51.6366 241.7051 0012506 355.6669   4.4211 15.53474434  2225
Binar 2
1 60956U 98067WW  24256.29230916  .00163710  00000-0  24481-2 0  9996
2 60956  51.6347 243.6114 0011491 356.0610   4.0288 15.53855121  2158
Binar 3
1 60957U 98067WX  24256.67683599  .00404886  00000-0  57101-2 0  9995
2 60957  51.6358 241.6798 0011195 358.5921   1.5036 15.54591453  4207
